Home > Weather > Rio de Janeiro > Past weeks

Flag for Brazil Weather for the Past 2 Weeks in Rio de Janeiro, Rio de Janeiro, Brazil

Now
77 °F

Sunny.


Feels Like: 79 °F
Forecast: 63 / 81 °F
Wind: 6 mph from North

Location: Rio De Janeiro Airport

Current Time: May 3, 2016 at 12:12:58 PM

Latest Report: May 3, 2016 at 11:00 AM


Visibility: 10 mi

Pressure: 30.09 "Hg

Humidity: 61%

Dew Point: 63 °F

Location of Rio de JaneiroLocation

Historic Weather in Rio de Janeiro — Graph

°F

Rio de Janeiro Temperature Yesterday

Maximum temperature yesterday: 79 °F (at 1:00 PM)
Minimum temperature yesterday: 64 °F (at 3:00 AM)
Average temperature yesterday: 70 °F

High & Low Weather Summary for the Past Weeks

 TemperatureHumidityPressure
High95 °F (Apr 22, 12:00 PM)100% (Apr 27, 3:00 AM)30.18 "Hg (Apr 27, 3:00 AM)
Low64 °F (May 2, 3:00 AM)41% (Apr 22, 12:00 PM)29.68 "Hg (Apr 26, 5:00 AM)
Average77 °F74%29.95 "Hg
* Reported Apr 18 11:00 AM — May 3 11:00 AM, Rio de Janeiro, Weather by CustomWeather, © 2016

Note: Actual official high and low records may vary slightly from our data, if they occured in-between our weather recording intervals... More about our weather records

Advertising

Rio de Janeiro Weather History for the Previous 24 Hours

Scroll right to see more
 ConditionsComfort  
Time TempWeatherWind HumidityBarometerVisibility
11:00 AM
Tue, May 3
77 °FSunny.6 mph61%30.09 "Hg10 mi
10:00 AM75 °FSunny.6 mph74%30.12 "Hg10 mi
9:00 AM72 °FSunny.6 mph83%30.12 "Hg10 mi
8:00 AM70 °FScattered clouds.7 mph88%30.12 "Hg4 mi
7:00 AM68 °FPartly sunny.6 mph88%30.12 "Hg4 mi
6:00 AM64 °FPassing clouds.7 mph94%30.12 "Hg4 mi
5:00 AM66 °FClear.6 mph94%30.09 "Hg10 mi
4:00 AM66 °FClear.5 mph94%30.09 "Hg10 mi
3:00 AM66 °FClear.5 mph94%30.09 "Hg10 mi
2:00 AM68 °FClear.6 mph88%30.04 "Hg10 mi
1:00 AM68 °FClear.5 mph94%30.12 "Hg10 mi
12:00 AM68 °FClear.1 mph94%30.12 "Hg10 mi
11:00 PM
Mon, May 2
68 °FClear.3 mph88%30.12 "Hg10 mi
10:00 PM68 °FClear.3 mph88%30.12 "Hg10 mi
9:00 PM68 °FClear.2 mph94%30.12 "Hg10 mi
8:00 PM72 °FPassing clouds.6 mph83%30.12 "HgN/A
7:00 PM70 °FPassing clouds.9 mph83%30.12 "HgN/A
6:00 PM72 °FPassing clouds.12 mph78%30.12 "HgN/A
5:00 PM73 °FPassing clouds.12 mph74%30.09 "HgN/A
4:00 PM75 °FPassing clouds.13 mph65%30.09 "HgN/A
3:00 PM77 °FPassing clouds.12 mph61%30.09 "HgN/A
2:00 PM79 °FPassing clouds.12 mph58%30.09 "HgN/A
1:00 PM79 °FPassing clouds.8 mph61%30.12 "HgN/A
12:00 PM77 °FPassing clouds.2 mph57%30.15 "HgN/A
Weather by CustomWeather, © 2016

See weather overviewHow to use our weather pages